Regional Weather Roundup
Issued by NWS

Home | Current Version | Previous Version | Text Only | Print | Product List | Glossary On
Versions: 1 2 3 4 5 6 7 8 9 10 11 12 13 14 15 16 17 18 19 20 21 22 23 24 25 26 27 28 29 30 31 32 33 34 35 36 37 38 39 40 41 42 43 44 45 46 47 48 49 50
000
ASUS43 KTOP 220608
RWRKS

WEATHER ROUNDUP FOR KANSAS
NATIONAL WEATHER SERVICE GOODLAND KS
100 AM CDT SAT JUL 22 2017

NOTE:  "FAIR" INDICATES FEW OR NO CLOUDS BELOW 12,000 FEET WITH NO
SIGNIFICANT WEATHER AND/OR OBSTRUCTIONS TO VISIBILITY.

KSZ001>006-013>018-027>032-041>047-220700-
NORTHWEST KANSAS

CITY           SKY/WX    TMP DP  RH WIND       PRES   REMARKS
GOODLAND       CLOUDY    74  58  57 NW30G39   30.00R
6HR MIN TEMP:  74; 6HR MAX TEMP:  97;

HAYS           CLEAR     78  58  49 SW7       29.86S
HILL CITY      CLEAR     85  57  38 SW10      29.86R
6HR MIN TEMP:  82; 6HR MAX TEMP: 105;

RUSSELL        CLEAR     85  58  39 S13       29.84S
6HR MIN TEMP:  85; 6HR MAX TEMP: 104;

$$

KSZ061>065-074>080-084>089-220700-
SOUTHWEST KANSAS

CITY           SKY/WX    TMP DP  RH WIND       PRES   REMARKS
DODGE CITY     CLEAR     81  56  42 S10       29.93S
6HR MIN TEMP:  78; 6HR MAX TEMP: 100;

ELKHART          N/A     75  45  34 S9          N/A
GARDEN CITY    CLEAR     75  57  53 S5        29.94S
6HR MIN TEMP:  74; 6HR MAX TEMP:  97;

LIBERAL        CLEAR     74  56  53 S7        29.96S
PRATT          CLEAR     80  57  44 S12       29.91R
6HR MIN TEMP:  80; 6HR MAX TEMP:  99;

$$

KSZ066>073-081>083-090>101-220700-
SOUTHEAST KANSAS

CITY           SKY/WX    TMP DP  RH WIND       PRES   REMARKS
CHANUTE        CLEAR     84  73  69 S13       29.90S
6HR MIN TEMP:  84; 6HR MAX TEMP:  96;

COFFEYVILLE    CLEAR     82  74  76 S9        29.90F
6HR MIN TEMP:  82; 6HR MAX TEMP:  95;

HUTCHINSON     CLEAR     87  62  43 S10       29.87S
6HR MIN TEMP:  85; 6HR MAX TEMP: 103;

MEDICINE LODGE   N/A     84  61  45 S8        29.89R
NEWTON         CLEAR     86  68  54 S18       29.89R
PARSONS        CLEAR     82  73  74 S7        29.92S
6HR MIN TEMP:  82; 6HR MAX TEMP:  94;

WICHITA INTL   CLEAR     86  69  56 S16       29.88R
6HR MIN TEMP:  86; 6HR MAX TEMP: 101;

WICHITA JABRA  CLEAR     85  70  60 S12G22    29.89R
6HR MIN TEMP:  85; 6HR MAX TEMP: 100;

WICHITA MCCONL CLEAR     85  69  57 SW17      29.89S
WINFIELD       CLEAR     86  71  60 S16       29.91R
6HR MIN TEMP:  85; 6HR MAX TEMP:  98;

$$

KSZ007>012-019>026-033>040-048>060-102>105-220700-
NORTHEAST KANSAS

CITY           SKY/WX    TMP DP  RH WIND       PRES   REMARKS
CONCORDIA      CLEAR     85  62  46 S20       29.79S
6HR MIN TEMP:  85; 6HR MAX TEMP: 101;

EMPORIA        CLEAR     83  71  67 S15       29.86S
6HR MIN TEMP:  83; 6HR MAX TEMP:  97;

LAWRENCE       CLEAR     86  73  65 S15       29.82F
6HR MIN TEMP:  86; 6HR MAX TEMP:  96;

MANHATTAN      CLEAR     89  68  49 SW15G25   29.80S
6HR MIN TEMP:  89; 6HR MAX TEMP: 103;

MARYSVILLE     CLEAR     88  68  51 S15G21    29.79S
OLATHE IND     CLEAR     83  71  67 S16       29.86F
6HR MIN TEMP:  83; 6HR MAX TEMP:  93;

OLATHE EXE     CLEAR     83  72  69 S13G24    29.86S
6HR MIN TEMP:  83; 6HR MAX TEMP:  91;

SALINA         PTCLDY    90  63  40 S16G25    29.82S
6HR MIN TEMP:  88; 6HR MAX TEMP: 106;

TOPEKA BILLARD CLEAR     87  73  62 S14G23    29.81S
6HR MIN TEMP:  86; 6HR MAX TEMP:  97;

TOPEKA FORBES  CLEAR     87  73  62 S15       29.83S
6HR MIN TEMP:  87; 6HR MAX TEMP:  98;

$$



USA.gov is the U.S. government's official web portal to all federal, state and local government web resources and services.